This is the latest recevied weather packets stored in our database for station/object M0TJX-1. If no packets are shown the sender has not sent any weather packets the latest 10 day(s).
| Time | Temp. | Humidity | Pressure | Rain* | Wind** | Luminosity | Snow |
|---|---|---|---|---|---|---|---|
| 1777428806 | 5.56° C | 80% | 1025 hPa | 0 mm | - | - | - |
| 1777427906 | 6.11° C | 78% | 1025.1 hPa | 0 mm | - | - | - |
| 1777427006 | 6.11° C | 77% | 1025.2 hPa | 0 mm | - | - | - |
| 1777426106 | 6.11° C | 76% | 1025.4 hPa | 0 mm | - | - | - |
| 1777425206 | 6.11° C | 76% | 1025.3 hPa | 0 mm | - | - | - |
| 1777424306 | 6.67° C | 74% | 1025.5 hPa | 0 mm | - | - | - |
| 1777423406 | 6.67° C | 73% | 1025.5 hPa | 0 mm | - | - | - |
| 1777422506 | 6.67° C | 72% | 1025.3 hPa | 0 mm | - | - | - |
| 1777421606 | 7.22° C | 71% | 1025.3 hPa | 0 mm | - | - | - |
| 1777420706 | 7.22° C | 70% | 1025.3 hPa | 0 mm | - | - | - |
| 1777419806 | 7.22° C | 69% | 1025.4 hPa | 0 mm | - | - | - |
| 1777418906 | 7.78° C | 67% | 1025.2 hPa | 0 mm | - | - | - |
| 1777418006 | 7.78° C | 65% | 1025.2 hPa | 0 mm | - | - | - |
| 1777417106 | 7.78° C | 64% | 1025.2 hPa | 0 mm | - | - | - |
| 1777416206 | 8.33° C | 62% | 1025.3 hPa | 0 mm | - | - | - |
| 1777415306 | 8.33° C | 61% | 1025.3 hPa | 0 mm | - | - | - |
| 1777414406 | 8.33° C | 60% | 1025.1 hPa | 0 mm | - | - | - |
| 1777413506 | 8.89° C | 60% | 1025.1 hPa | 0 mm | - | - | - |
| 1777412606 | 8.89° C | 60% | 1025.2 hPa | 0 mm | - | - | - |
| 1777411706 | 9.44° C | 60% | 1025.3 hPa | 0 mm | - | - | - |
| 1777410806 | 9.44° C | 59% | 1025.4 hPa | 0 mm | - | - | - |
| 1777409906 | 10° C | 58% | 1025.3 hPa | 0 mm | - | - | - |
| 1777408106 | 10° C | 55% | 1024.9 hPa | 0 mm | - | - | - |
| 1777407206 | 10.56° C | 55% | 1024.7 hPa | 0 mm | - | - | - |
| 1777406306 | 11.11° C | 54% | 1024.5 hPa | 0 mm | - | - | - |
* Rain latest hour (hover to see other rain measurements)
** Current wind speed in m/s (hover to see current wind gust speed)